TimeEDT,TemperatureF,Dew PointF,Humidity,Sea Level PressureIn,VisibilityMPH,Wind Direction,Wind SpeedMPH,Gust SpeedMPH,PrecipitationIn,Events,Conditions,WindDirDegrees,DateUTC
12:53 AM,42.1,32.0,67,29.82,10.0,WSW,19.6,32.2,0.00,Rain,Light Rain,250,2012-10-05 04:53:00
1:53 AM,39.0,34.0,82,29.82,7.0,West,23.0,36.8,0.00,Rain,Light Rain,260,2012-10-05 05:53:00
2:26 AM,39.2,33.8,81,29.81,9.0,West,25.3,39.1,0.01,Rain,Light Rain,260,2012-10-05 06:26:00
2:53 AM,37.9,34.0,86,29.83,9.0,West,24.2,36.8,0.03,Rain,Light Rain,260,2012-10-05 06:53:00
3:03 AM,37.4,33.8,87,29.81,7.0,WSW,19.6,32.2,0.00,Rain,Light Rain,250,2012-10-05 07:03:00
3:39 AM,37.4,33.8,87,29.80,10.0,WSW,15.0,27.6,0.01,Rain,Light Rain,250,2012-10-05 07:39:00
3:50 AM,37.4,33.8,87,29.80,10.0,WSW,23.0,39.1,0.01,Rain,Light Rain,250,2012-10-05 07:50:00
3:53 AM,37.9,33.1,83,29.81,9.0,WSW,21.9,39.1,0.01,Rain,Light Rain,250,2012-10-05 07:53:00
4:53 AM,37.9,32.0,79,29.80,10.0,WSW,17.3,26.5,0.01,,Overcast,250,2012-10-05 08:53:00
5:53 AM,39.0,30.9,73,29.80,10.0,West,23.0,35.7,0.00,Rain,Light Rain,260,2012-10-05 09:53:00
6:53 AM,39.0,30.0,70,29.79,10.0,West,25.3,35.7,0.00,,Overcast,260,2012-10-05 10:53:00
7:53 AM,39.0,28.9,67,29.80,10.0,WSW,26.5,38.0,0.00,Rain,Light Rain,250,2012-10-05 11:53:00
8:53 AM,37.9,30.9,76,29.80,10.0,West,17.3,36.8,0.00,Rain,Light Rain,260,2012-10-05 12:53:00
9:53 AM,37.9,30.9,76,29.81,9.0,West,25.3,36.8,0.01,Rain,Light Rain,260,2012-10-05 13:53:00
10:53 AM,37.9,30.9,76,29.81,10.0,West,27.6,35.7,0.01,Rain,Light Rain,260,2012-10-05 14:53:00
11:53 AM,37.9,32.0,79,29.82,7.0,West,27.6,41.4,0.00,Rain,Light Rain,260,2012-10-05 15:53:00
12:53 PM,39.9,28.9,65,29.82,10.0,West,23.0,40.3,0.00,,Overcast,270,2012-10-05 16:53:00
1:53 PM,41.0,28.9,62,29.81,10.0,West,28.8,39.1,N/A,,Overcast,260,2012-10-05 17:53:00
2:53 PM,41.0,28.9,62,29.81,10.0,West,26.5,38.0,N/A,,Overcast,260,2012-10-05 18:53:00
3:53 PM,41.0,28.9,62,29.81,10.0,West,27.6,41.4,N/A,,Overcast,260,2012-10-05 19:53:00
4:35 PM,39.2,30.2,70,29.79,10.0,West,27.6,38.0,0.00,Rain,Light Rain,270,2012-10-05 20:35:00
4:43 PM,41.0,28.4,61,29.79,10.0,West,27.6,35.7,0.00,,Overcast,260,2012-10-05 20:43:00
4:53 PM,41.0,28.9,62,29.82,10.0,West,28.8,35.7,0.00,,Overcast,270,2012-10-05 20:53:00
5:45 PM,41.0,30.2,65,29.80,10.0,West,23.0,36.8,N/A,,Overcast,270,2012-10-05 21:45:00
5:53 PM,41.0,30.9,67,29.83,10.0,West,26.5,39.1,N/A,,Overcast,270,2012-10-05 21:53:00
6:53 PM,39.9,32.0,73,29.84,10.0,West,23.0,31.1,N/A,,Overcast,270,2012-10-05 22:53:00
8:53 PM,39.0,36.0,89,29.85,10.0,West,19.6,28.8,0.02,Rain,Light Rain,270,2012-10-06 00:53:00
9:33 PM,37.4,35.6,93,29.81,5.0,WNW,15.0,29.9,0.06,Rain,Rain,290,2012-10-06 01:33:00
9:42 PM,37.4,35.6,93,29.81,10.0,NW,13.8,-,0.07,Rain,Light Rain,310,2012-10-06 01:42:00
9:53 PM,39.0,36.0,89,29.85,10.0,NW,20.7,29.9,0.07,Rain,Light Rain,310,2012-10-06 01:53:00
10:13 PM,37.4,35.6,93,29.82,7.0,NNW,17.3,29.9,0.02,Rain,Light Rain,330,2012-10-06 02:13:00
10:53 PM,37.0,35.1,93,29.86,9.0,NNW,16.1,24.2,0.04,Rain,Light Rain,330,2012-10-06 02:53:00
11:53 PM,37.0,34.0,89,29.87,10.0,NW,18.4,24.2,0.03,Rain,Light Rain,320,2012-10-06 03:53:00